Flag for Germany Weather past 2 weeks in Seelze, Lower Saxony, Germany

Now
41 °F

Partly sunny.


Feels Like: 32 °F
Forecast: 37 / 42 °F
Wind: 17 mph from Northwest

Location: Hannover

Current Time: Jan 27, 2015 at 2:07:58 PM

Latest Report: Jan 27, 2015 at 1:20 PM


Visibility: N/A

Pressure: 30.04 "Hg

Humidity: 87%

Dew point: 37 °F

Location of SeelzeLocation

Historic Weather in Seelze — Graph

°F

Seelze temperature yesterday

Maximum temperature yesterday: 41 °F (at 7:20 PM)
Minimum temperature yesterday: 36 °F (at 12:20 AM)
Average temperature yesterday: 38 °F

Past Weeks' High & Low Weather Summary

 TemperatureHumidityPressure
High54 °F (Jan 13, 1:50 PM)100% (Jan 13, 5:20 PM)30.30 "Hg (Jan 13, 5:20 PM)
Low23 °F (Jan 21, 5:50 AM)62% (Jan 16, 11:20 AM)29.42 "Hg (Jan 15, 5:50 PM)
Average36 °F86%29.93 "Hg
* Reported Jan 12 12:20 PM — Jan 27 12:50 PM, Seelze, Weather by CustomWeather, © 2014

Note: Actual official high and low records may vary slightly from our data, if they occured in-between our weather recording intervals... More about our weather records

Advertising

Seelze weather history for previous 24 hours

 ConditionsComfort  
Time TempWeatherWind HumidityBarometerVisibility
12:50 PM
Jan 27
41 °FPartly sunny.16 mph87%30.04 "HgN/A
12:20 PM41 °FBroken clouds.17 mph87%30.04 "HgN/A
11:50 AM39 °FPartly sunny.15 mph93%30.04 "HgN/A
11:20 AM37 °FBroken clouds.16 mph93%30.07 "HgN/A
10:50 AM39 °FBroken clouds.14 mph87%30.07 "HgN/A
10:20 AM37 °FBroken clouds.15 mph93%30.07 "HgN/A
9:50 AM36 °FPartly sunny.12 mph100%30.04 "HgN/A
9:20 AM36 °FPartly sunny.13 mph93%30.04 "HgN/A
8:50 AM36 °FSprinkles. Broken clouds.9 mph93%30.04 "Hg5 mi
8:20 AM36 °FBroken clouds.16 mph93%30.04 "HgN/A
7:50 AM36 °FPassing clouds.13 mph93%30.04 "HgN/A
7:20 AM36 °FPartly cloudy.13 mph93%30.01 "HgN/A
6:50 AM36 °FPartly cloudy.13 mph93%30.01 "HgN/A
6:20 AM36 °FSprinkles. Passing clouds.16 mph93%30.01 "HgN/A
5:50 AM36 °FSprinkles. Passing clouds.15 mph100%30.01 "HgN/A
5:20 AM36 °FSprinkles. Partly cloudy.15 mph100%30.01 "HgN/A
4:50 AM36 °FScattered showers. Partly cloudy.14 mph100%30.01 "HgN/A
4:20 AM36 °FSprinkles. Partly cloudy.13 mph100%29.98 "HgN/A
3:50 AM37 °FSprinkles. Passing clouds.14 mph93%29.98 "HgN/A
3:20 AM37 °FScattered showers. Partly cloudy.14 mph93%29.98 "HgN/A
2:50 AM37 °FSprinkles. Passing clouds.15 mph93%29.98 "Hg5 mi
2:20 AM37 °FScattered showers. Partly cloudy.14 mph93%29.98 "HgN/A
1:50 AM37 °FSprinkles. Partly cloudy.15 mph93%29.98 "Hg6 mi
1:20 AM37 °FScattered showers. Partly cloudy.16 mph93%29.98 "HgN/A
12:50 AM37 °FSprinkles. Partly cloudy.14 mph93%29.98 "HgN/A
12:20 AM37 °FScattered showers. Partly cloudy.15 mph93%29.95 "HgN/A
11:50 PM
Jan 26
37 °FPartly cloudy.15 mph93%29.95 "HgN/A
11:20 PM39 °FPartly cloudy.16 mph93%29.95 "HgN/A
10:50 PM39 °FPassing clouds.14 mph93%29.95 "HgN/A
10:20 PM39 °FPassing clouds.13 mph93%29.95 "HgN/A
9:50 PM39 °FScattered showers. Passing clouds.16 mph93%29.95 "HgN/A
9:20 PM41 °FScattered showers. Partly cloudy.16 mph93%29.92 "HgN/A
8:50 PM41 °FPartly cloudy.12 mph93%29.92 "HgN/A
8:20 PM41 °FPartly cloudy.14 mph93%29.92 "HgN/A
7:50 PM41 °FPassing clouds.13 mph93%29.92 "Hg5 mi
7:20 PM41 °FPassing clouds.12 mph93%29.92 "Hg4 mi
6:50 PM39 °FDrizzle. Low clouds.10 mph100%29.92 "Hg3 mi
6:20 PM39 °FDrizzle. Mostly cloudy.12 mph100%29.92 "Hg1 mi
5:50 PM39 °FDrizzle. Mostly cloudy.10 mph93%29.92 "Hg2 mi
5:20 PM39 °FDrizzle. Mostly cloudy.12 mph100%29.92 "Hg2 mi
4:50 PM39 °FDrizzle. Low clouds.9 mph93%29.92 "Hg4 mi
4:20 PM39 °FDrizzle. Mostly cloudy.9 mph93%29.92 "Hg4 mi
3:50 PM39 °FDrizzle. Fog.10 mph93%29.95 "Hg2 mi
3:20 PM39 °FLow clouds.9 mph93%29.95 "HgN/A
2:50 PM39 °FOvercast.8 mph93%29.98 "HgN/A
2:20 PM39 °FLight rain. Overcast.10 mph93%29.98 "HgN/A
Weather by CustomWeather, © 2014

See weather overviewHow to use our weather pages